Regional Weather Roundup
Issued by NWS Bismarck, ND

Home | Current Version | Previous Version | Text Only | Print | Product List | Glossary On
Versions: 1 2 3 4 5 6 7 8 9 10 11 12 13 14 15 16 17 18 19 20 21 22 23 24 25 26 27 28 29 30 31 32 33 34 35 36 37 38 39 40 41 42 43 44 45 46 47 48 49 50
000
ASUS43 KBIS 291910
RWRBIS

NWR BROADCAST TEXT
NATIONAL WEATHER SERVICE BISMARCK ND
200 PM CDT WED MAR 29 2017

NOTE: "FAIR" INDICATES FEW OR NO CLOUDS BELOW 12,000 FEET WITH NO
SIGNIFICANT WEATHER AND/OR OBSTRUCTIONS TO VISIBILITY.


CITY           SKY/WX    TMP DP  RH WIND       PRES   REMARKS
WILLISTON      FAIR      60  34  37 W13       29.94F
MINOT          CLOUDY    59  43  55 S17G28    29.97F
MINOT AFB      PTSUNNY   55  45  67 SW14      29.95F
BISMARCK       PTSUNNY   61  40  45 S14       30.04F
DICKINSON      FAIR      57  37  47 SW14      29.97F
GARRISON         N/A     58  42  55 S16       29.98F
HETTINGER ARPT PTSUNNY   56  39  53 SW9       30.03F
JAMESTOWN      FAIR      61  36  39 S17       30.07F
HAZEN          MOCLDY    59  39  47 S17       30.01F
LINTON         MOCLDY    61  43  51 S9G21     30.07F
MANDAN         CLOUDY    57  39  51 S13G21    30.04F
STANLEY        FAIR      55  46  71 SW12      29.97F
TIOGA          FAIR      54  50  87 SW16G23   29.96S
WATFORD CITY   FAIR      59  43  55 SW12G22   29.94F
$$

CITY           SKY/WX    TMP DP  RH WIND       PRES   REMARKS
GRAND FORKS    FAIR      58  46  64 S12       30.10F
GRAND FORKS AF FAIR      59  46  61 S12       30.09F
DEVILS LAKE    FAIR      54  40  59 S10       30.05F
FARGO          FAIR      59  40  49 S12       30.12F
CAVALIER       FAIR      55  46  71 S10       30.06F
GRAFTON        FAIR      57  46  67 SE12      30.10F
GWINNER        PTCLDY    61  32  33 MISG      30.10F
LANGDON        FAIR      52  46  82 S12       30.05F
ROLLA          FAIR      45  45 100 S16G23    30.01F
$$

CITY           SKY/WX    TMP DP  RH WIND       PRES   REMARKS
ABERDEEN       FAIR      61  32  33 S14       30.09F
MOBRIDGE       FAIR      62  31  31 S9        30.04F
BUFFALO          N/A     58  35  42 VRB7      29.95F
RAPID CITY     FAIR      52  42  69 N5        30.05F
GLASGOW        FAIR      56  27  32 W15G24    29.95F
SIDNEY         FAIR      61  30  31 W16G22    29.95F
WOLF POINT     FAIR      60  29  30 W16G25    29.95F
GLENDIVE       FAIR      59  30  33 W13       29.98F
MILES CITY     FAIR      56  30  37 SW7       30.01F
BAKER          FAIR      59  30  33 W16       30.00F
$$

CITY           SKY/WX    TMP DP  RH WIND       PRES   REMARKS
BILLINGS       CLOUDY    53  30  41 CALM      30.01F
GREAT FALLS    FAIR      48  33  56 SW24G30   29.94F
REGINA         MOSUNNY   55  30  38 W16       29.85F
ESTEVAN        CLOUDY    54  34  47 SW13      29.92F
$$





USA.gov is the U.S. government's official web portal to all federal, state and local government web resources and services.